User: anonymous   Login
Location: Tierra del Sol
(32.6128°N, 116.3319°W)
Time: 22:25:53
(UTC-08:00)
Language:

Vanguard 2 Rocket - Orbit

View from above orbital plane
View from above orbital plane
View from above satellite
View from above satellite

Ground track
Ground track

The orbit data is extracted from the following two-line orbital elements,

1    12U 59001B   17348.37073972 +.00000162 +00000-0 +80560-4 0  9991
2    12 032.9111 315.8216 1665198 300.0457 044.5174 11.44149832175020
Epoch (UTC): 14 December 2017 08:53:51
Eccentricity: 0.1665198
inclination: 32.9111°
perigee height: 556 km
apogee height: 3326 km
right ascension of ascending node: 315.8216°
argument of perigee: 300.0457°
revolutions per day: 11.44149832
mean anomaly at epoch: 44.5174°
orbit number at epoch: 17502

The dashed part of the orbit path shows where the satellite is in the earth's shadow,  

DLR